Wind_Speed
14 12 15 18 17 14 10 11 16 11 10 13 16 17 18 19 19 16 14 13 12 13 13 13 13 13 13 13 12 12 12 12 12 12 12 12 12 11 10 10 9 9 8 8 7 7 7 7 7
18 16 17 19 19 16 13 18 18 12 14 15 18 19 21 23 21 19 16 15 14 15 14 14 14 14 14 14 14 13 12 12 12 12 12 12 12 11 10 9 8 7 7 6 6 6 6 7 7
22 20 20 21 19 18 19 24 19 11 13 17 19 20 23 23 19 18 18 18 17 17 16 15 15 15 15 15 14 13 12 12 12 12 12 11 10 10 9 8 7 6 5 5 5 5 5 6 6
26 25 23 22 18 18 21 27 20 13 10 14 18 19 22 21 20 19 19 19 18 17 17 16 16 16 16 15 14 13 12 12 12 12 11 10 9 8 8 7 6 5 4 4 4 5 5 6 6
30 29 27 23 19 19 22 27 24 13 11 14 17 21 22 19 18 17 17 17 17 16 16 16 16 16 16 15 14 13 12 12 11 11 11 10 9 7 6 5 5 4 4 4 4 5 5 6 7
33 32 31 25 21 20 23 28 23 15 11 13 16 22 23 18 16 16 15 15 14 14 15 15 16 16 16 15 14 13 12 11 11 11 10 9 8 7 5 5 5 5 4 4 5 5 6 7 8
33 34 33 28 25 22 23 28 23 17 14 17 20 24 26 19 16 15 15 14 13 13 14 14 15 16 16 15 14 13 12 11 11 11 10 9 7 6 5 5 5 5 5 5 5 6 6 8 9
32 36 36 33 29 25 24 27 26 25 22 23 26 28 26 17 16 14 15 15 13 12 13 14 14 15 15 14 13 12 12 11 11 11 10 9 7 6 5 5 5 6 6 6 6 6 8 9 10
33 37 38 35 31 26 26 29 30 29 25 23 26 32 28 19 15 14 15 14 13 12 13 13 14 15 14 13 13 12 12 12 11 11 10 8 7 6 6 6 6 7 7 7 7 8 9 10 10
33 37 36 35 32 27 26 30 30 26 27 24 25 31 28 22 17 15 15 14 13 12 12 13 14 14 13 13 12 12 12 12 11 10 9 8 7 7 7 7 8 8 9 9 9 9 10 11 11
32 34 33 35 35 32 30 30 27 24 27 24 23 27 27 23 20 17 16 14 13 12 12 12 13 13 13 13 12 12 11 11 11 10 9 9 8 8 8 9 9 10 10 10 11 11 12 13 13
31 32 34 36 37 37 36 35 30 25 26 24 23 25 25 22 20 18 17 15 13 12 12 12 12 13 13 13 12 11 11 11 10 10 10 10 9 9 9 10 10 11 12 12 13 14 14 15 16
28 31 33 37 40 42 42 40 36 31 29 30 31 29 25 21 20 18 18 16 15 13 12 12 12 12 12 13 12 11 11 11 10 10 11 11 11 11 11 11 12 13 13 14 15 16 17 18 18
26 29 33 36 39 42 43 41 39 35 32 30 31 31 28 24 21 20 20 17 15 14 12 12 13 13 13 13 13 12 12 12 11 11 11 11 11 12 12 13 14 15 16 17 18 19 20 21 22
27 29 31 33 35 37 39 39 37 33 33 31 30 30 30 27 24 23 21 18 16 14 13 13 13 14 14 14 14 13 13 13 13 13 13 13 13 14 15 15 17 18 19 20 22 23 23 24 25
24 25 26 26 28 31 35 36 33 31 31 31 29 29 30 29 27 25 23 20 17 14 13 14 15 15 15 15 15 15 15 15 15 15 15 15 16 16 17 18 19 21 22 24 25 26 27 28 28
17 17 18 17 20 25 30 30 27 26 29 29 28 28 28 29 29 29 27 24 21 17 15 16 16 16 17 17 17 17 17 17 17 17 17 18 19 20 20 21 22 23 25 27 28 29 30 30 30
7 10 11 12 17 21 24 26 24 23 25 27 27 26 28 31 32 33 30 27 23 21 19 18 18 18 19 19 19 19 19 20 20 21 21 21 22 23 23 24 25 26 27 29 31 31 31 31 32
13 13 13 13 18 19 20 22 24 23 25 26 26 26 29 31 33 34 33 29 26 23 20 19 20 20 20 20 21 21 22 23 24 25 25 25 26 26 27 27 27 28 29 30 31 32 32 31 31
16 15 15 16 17 18 19 22 24 24 25 27 28 27 31 33 36 35 32 29 29 26 23 21 21 21 21 21 23 25 26 27 27 28 29 29 29 29 29 30 31 32 32 32 31 30 31 32 32
19 18 16 14 14 17 20 22 24 26 27 28 29 29 33 34 33 34 31 30 27 26 24 23 23 23 23 23 23 26 28 29 29 30 31 32 33 33 32 33 34 35 35 32 31 30 31 31 31
15 15 16 15 15 15 17 20 24 26 29 30 31 32 31 31 32 29 28 30 28 27 26 24 24 25 26 25 26 27 28 30 31 33 35 36 34 34 35 34 36 37 36 33 30 29 31 32 30
13 13 15 16 17 18 18 19 21 24 27 29 30 30 30 30 29 29 29 30 30 29 28 27 27 28 28 29 29 31 32 33 34 35 36 37 37 37 36 38 38 37 37 34 32 30 29 30 29
14 14 15 15 17 19 19 20 23 24 25 28 29 28 28 27 28 28 28 30 30 30 31 30 30 31 31 31 32 34 35 37 37 37 38 38 38 36 36 38 38 37 36 35 33 32 32 32 32
14 15 12 11 14 16 16 21 28 27 23 24 27 27 27 27 27 27 29 30 31 32 32 32 33 34 34 35 36 36 38 39 40 39 38 37 37 35 35 37 37 35 35 35 35 35 35 34 34
13 16 16 13 13 13 16 25 29 29 24 22 23 25 26 27 27 28 29 30 31 33 34 36 37 37 37 37 39 39 39 40 41 41 40 39 39 40 39 39 38 37 37 37 37 37 38 37 37
12 16 16 16 15 16 21 28 29 28 25 23 23 23 24 26 27 28 30 31 33 34 36 38 39 38 38 39 39 39 40 42 43 43 42 42 42 42 42 42 42 40 41 41 41 41 41 41 41
13 14 14 16 14 16 22 26 26 25 25 25 25 26 27 27 27 28 29 30 32 34 35 37 38 38 39 40 40 40 41 42 42 42 42 43 43 45 45 44 44 44 44 45 44 44 43 44 45
15 17 17 16 15 14 16 20 26 26 25 25 26 27 28 28 27 27 28 29 31 33 34 35 36 38 39 40 41 41 42 44 44 44 45 46 47 47 47 47 47 47 47 47 47 48 48 49 48
13 15 18 19 17 14 15 19 17 18 19 20 23 25 27 29 29 29 30 30 31 33 34 35 37 38 39 41 42 42 43 44 45 45 46 48 48 49 49 49 49 49 50 49 49 49 50 51 52
Wind_Direction
252 249 237 232 230 221 210 249 259 256 247 243 245 245 247 245 242 240 245 251 258 255 253 251 247 244 240 237 236 239 243 247 250 249 249 251 251 251 252 254 257 261 266 270 273 278 283 289 291
246 245 236 231 228 217 224 243 240 230 246 259 258 252 252 251 250 256 268 270 268 263 258 253 248 245 243 241 239 239 241 245 249 250 250 252 252 252 254 257 261 267 274 279 286 293 297 299 298
241 240 236 233 230 218 230 235 228 222 249 258 259 254 249 254 260 267 270 270 269 265 259 254 249 246 244 242 240 238 240 243 247 248 249 251 252 253 255 259 265 273 281 289 298 305 308 308 304
238 236 236 235 234 219 238 254 238 205 224 247 250 252 253 251 259 266 271 269 268 266 260 253 248 246 243 240 238 237 239 241 244 245 246 247 250 252 256 262 270 279 288 299 309 317 320 317 313
236 235 235 234 234 220 236 256 256 215 208 238 248 251 253 251 257 264 270 273 270 267 260 251 248 245 240 237 235 236 237 238 240 242 242 244 246 250 255 263 272 280 290 304 316 324 329 330 324
236 234 234 233 231 224 236 248 248 241 231 249 251 252 252 248 252 262 269 274 274 268 259 250 245 241 237 235 235 234 234 235 237 236 237 240 243 247 253 262 272 280 292 307 320 330 336 334 329
237 234 232 230 228 224 234 248 250 245 237 244 248 253 255 239 245 258 268 274 276 271 259 248 240 237 234 231 230 230 230 230 231 231 233 237 241 245 250 261 272 282 294 307 320 329 334 336 334
237 234 231 227 226 223 233 242 241 240 237 243 248 250 249 236 238 255 269 275 279 274 259 245 238 234 230 226 224 223 224 224 225 228 231 235 240 246 252 262 274 285 296 305 315 322 329 334 335
237 234 230 226 226 225 234 246 241 235 233 239 249 253 253 253 247 256 268 276 281 273 257 243 236 233 228 225 221 217 216 218 221 226 230 235 242 250 259 266 275 286 296 304 313 321 327 331 332
237 236 231 226 223 225 234 247 252 239 231 231 242 255 257 257 253 256 264 277 280 274 257 243 235 230 224 222 218 215 215 217 222 227 232 238 246 256 264 270 278 287 295 301 309 317 325 328 328
238 237 231 226 221 220 226 237 244 244 235 229 234 251 256 251 248 251 260 272 277 272 258 242 234 227 220 216 214 214 217 220 224 230 236 244 252 262 270 274 281 289 295 301 306 311 317 321 322
238 236 231 226 220 219 223 227 228 235 233 229 227 240 244 243 243 247 254 265 272 268 257 242 230 224 219 215 215 217 220 223 228 235 242 251 260 268 274 276 282 289 295 299 303 306 310 313 315
238 237 233 228 223 222 225 226 228 230 234 234 231 233 240 237 236 240 251 260 263 262 255 243 229 225 222 220 220 221 225 230 237 244 250 256 264 271 275 278 283 288 291 295 298 301 304 307 308
236 238 236 231 228 228 230 230 232 235 239 240 238 235 236 234 233 240 248 249 255 254 252 244 234 229 226 226 227 228 234 238 242 249 256 260 267 273 277 281 284 286 289 292 294 296 298 301 303
237 237 237 235 232 232 232 231 233 236 238 240 240 239 234 232 231 235 242 246 250 250 250 246 240 235 234 233 234 236 241 246 250 254 259 263 266 272 276 280 283 285 287 288 290 292 294 295 296
242 242 240 237 236 233 231 231 231 234 236 237 238 237 234 232 230 234 238 242 242 246 252 248 243 241 240 240 242 244 246 250 254 257 260 262 265 268 272 276 281 284 286 287 286 288 290 292 292
244 246 241 235 239 234 231 228 226 230 235 235 234 233 231 231 229 229 232 234 237 242 248 250 247 247 247 247 247 248 251 255 258 261 265 267 268 267 270 275 280 285 287 287 286 287 288 289 289
235 256 247 230 233 233 228 221 215 220 228 231 230 226 225 229 230 228 228 229 233 237 244 249 249 250 250 253 253 252 256 259 261 264 265 268 269 268 272 276 281 285 288 287 287 288 290 287 287
215 218 215 218 224 227 221 210 210 214 221 224 224 219 220 227 232 232 228 226 228 233 241 247 250 253 254 256 257 257 258 260 264 267 267 270 271 271 274 277 282 285 287 287 287 289 291 290 289
213 212 202 196 214 214 210 208 208 213 218 219 217 216 217 219 227 229 226 224 225 231 237 246 251 254 256 261 261 259 260 262 266 268 269 270 272 274 277 279 283 284 285 288 290 289 293 291 288
218 210 203 205 220 218 208 211 214 218 220 218 218 218 219 221 224 226 229 228 230 231 235 244 250 256 260 264 267 267 264 264 267 270 269 271 274 276 279 283 284 285 287 290 289 294 297 296 291
217 214 210 204 207 211 209 213 218 220 223 221 222 225 227 227 225 227 230 231 235 235 238 246 252 257 263 269 269 268 269 269 269 270 271 271 274 279 280 286 285 285 287 290 291 295 299 296 294
209 212 215 207 202 205 214 218 227 226 223 222 225 231 233 234 232 232 233 233 235 238 243 249 253 258 263 267 269 269 268 270 270 271 275 275 276 282 283 285 286 285 287 291 293 295 298 298 294
209 210 214 212 208 213 209 218 233 231 230 226 227 231 234 238 237 237 236 238 239 244 247 249 253 258 261 265 267 269 270 270 271 273 278 279 280 284 288 290 289 289 290 294 295 296 298 299 294
208 200 201 212 220 222 215 220 237 235 231 226 226 232 236 238 238 237 239 242 245 248 252 254 256 260 263 266 268 271 274 274 275 277 279 282 285 290 291 293 293 296 296 296 296 299 298 296 293
211 192 186 203 217 224 225 233 239 244 244 235 232 234 237 239 240 240 241 243 246 250 253 256 259 262 264 268 269 271 276 277 277 278 282 286 290 293 297 299 300 300 300 300 298 299 296 294 291
206 192 195 213 211 211 215 227 239 248 251 245 242 240 238 240 241 241 242 244 247 250 253 257 259 262 264 267 269 272 275 276 280 282 285 289 291 295 296 298 300 299 299 298 296 295 293 291 289
197 202 208 216 234 235 229 230 242 246 246 244 242 241 240 241 241 242 243 246 248 250 252 255 258 261 264 267 271 273 275 278 280 282 285 290 293 294 296 297 297 296 295 295 294 292 291 290 289
200 204 208 215 236 255 257 246 238 236 235 235 238 240 241 239 240 242 244 247 250 252 254 256 258 261 263 266 270 273 275 277 279 282 285 288 290 291 293 294 294 294 293 293 291 290 288 287 285
204 205 212 218 229 246 278 278 265 242 238 235 237 239 239 239 240 242 246 248 250 252 255 257 259 261 264 266 270 273 275 277 279 282 285 286 288 289 291 291 291 290 290 290 289 287 285 285 284
Height
5882 5883 5883 5885 5888 5890 5892 5893 5891 5891 5890 5889 5892 5891 5891 5892 5891 5891 5889 5890 5893 5894 5895 5895 5896 5897 5897 5898 5898 5899 5899 5900 5901 5901 5901 5902 5902 5902 5902 5902 5902 5902 5903 5903 5903 5903 5903 5903 5902
5879 5880 5881 5882 5884 5887 5890 5888 5887 5888 5888 5888 5891 5892 5890 5888 5887 5887 5888 5890 5892 5892 5893 5894 5894 5895 5895 5896 5896 5897 5898 5899 5899 5900 5900 5901 5901 5901 5901 5901 5901 5901 5902 5902 5902 5902 5902 5902 5902
5875 5876 5877 5879 5881 5883 5885 5884 5883 5885 5886 5888 5889 5889 5888 5887 5885 5886 5888 5889 5891 5891 5892 5892 5892 5893 5893 5894 5895 5896 5896 5897 5898 5899 5899 5899 5900 5900 5900 5901 5901 5901 5901 5901 5901 5901 5901 5901 5901
5870 5872 5874 5876 5878 5881 5882 5878 5880 5880 5883 5885 5887 5887 5885 5886 5886 5887 5887 5888 5889 5890 5890 5890 5891 5891 5891 5892 5893 5894 5895 5896 5897 5898 5898 5899 5899 5899 5900 5900 5900 5900 5900 5900 5901 5901 5901 5901 5900
5864 5867 5869 5872 5875 5878 5879 5876 5877 5876 5880 5882 5884 5884 5883 5884 5885 5886 5886 5887 5888 5888 5888 5888 5889 5889 5890 5890 5891 5892 5893 5894 5896 5897 5897 5898 5898 5899 5899 5899 5899 5900 5900 5900 5900 5900 5900 5900 5899
5858 5861 5864 5868 5871 5874 5876 5874 5875 5875 5876 5880 5881 5880 5880 5882 5884 5884 5885 5885 5886 5886 5886 5886 5887 5887 5888 5889 5890 5891 5892 5893 5895 5895 5896 5897 5898 5898 5898 5899 5899 5899 5899 5899 5899 5899 5899 5899 5898
5852 5855 5859 5864 5867 5871 5874 5871 5869 5873 5875 5878 5879 5877 5876 5877 5881 5882 5883 5883 5883 5884 5884 5884 5885 5886 5886 5887 5888 5890 5891 5892 5894 5895 5896 5896 5897 5898 5898 5898 5898 5898 5899 5899 5899 5898 5898 5898 5897
5845 5848 5852 5857 5862 5866 5870 5867 5868 5871 5873 5874 5875 5873 5870 5872 5877 5880 5880 5880 5881 5882 5882 5882 5883 5884 5885 5886 5887 5888 5890 5891 5893 5894 5895 5896 5897 5897 5897 5897 5898 5898 5898 5898 5898 5898 5897 5897 5896
5837 5841 5845 5852 5857 5862 5865 5863 5863 5865 5868 5870 5871 5869 5870 5873 5875 5877 5878 5878 5879 5880 5880 5880 5881 5882 5883 5884 5886 5887 5889 5890 5892 5893 5894 5895 5896 5896 5897 5897 5897 5897 5897 5897 5897 5897 5896 5895 5895
5830 5833 5840 5847 5851 5856 5858 5858 5856 5857 5863 5865 5867 5865 5868 5872 5874 5876 5877 5876 5877 5878 5878 5878 5879 5881 5882 5883 5884 5886 5888 5889 5891 5892 5893 5894 5895 5895 5896 5896 5896 5896 5896 5896 5896 5895 5895 5894 5893
5823 5827 5834 5838 5843 5847 5850 5852 5852 5852 5857 5861 5863 5863 5864 5868 5871 5873 5874 5875 5875 5876 5876 5877 5878 5879 5881 5882 5883 5885 5887 5889 5890 5891 5892 5893 5894 5894 5894 5895 5895 5895 5895 5894 5894 5894 5893 5893 5892
5817 5821 5825 5830 5834 5837 5841 5844 5846 5849 5854 5857 5859 5860 5861 5864 5868 5871 5872 5872 5873 5874 5874 5875 5876 5878 5879 5881 5882 5884 5886 5888 5889 5890 5891 5892 5892 5893 5893 5893 5893 5893 5893 5893 5892 5892 5891 5891 5890
5811 5815 5818 5821 5825 5829 5833 5837 5841 5845 5849 5853 5854 5857 5859 5862 5865 5868 5869 5870 5871 5872 5873 5874 5875 5876 5878 5880 5881 5883 5885 5886 5888 5888 5889 5890 5890 5891 5891 5891 5891 5891 5891 5890 5890 5890 5889 5888 5888
5806 5809 5811 5814 5818 5822 5827 5833 5837 5842 5845 5848 5850 5853 5857 5860 5862 5865 5866 5865 5867 5870 5871 5872 5874 5875 5877 5878 5879 5881 5883 5884 5886 5887 5887 5888 5888 5888 5888 5888 5889 5888 5888 5888 5887 5887 5886 5885 5884
5799 5802 5805 5808 5812 5817 5822 5827 5833 5838 5840 5843 5847 5849 5853 5856 5859 5861 5862 5863 5865 5868 5869 5870 5872 5873 5875 5876 5878 5879 5881 5882 5884 5884 5885 5885 5886 5886 5886 5886 5886 5885 5885 5884 5884 5883 5882 5881 5881
5794 5797 5800 5805 5808 5812 5817 5822 5828 5832 5835 5839 5842 5845 5849 5852 5854 5856 5859 5861 5863 5865 5867 5868 5870 5872 5873 5874 5876 5877 5878 5879 5880 5881 5882 5882 5883 5883 5883 5883 5883 5882 5881 5880 5879 5879 5878 5876 5876
5791 5794 5797 5802 5804 5808 5812 5818 5824 5827 5830 5834 5837 5841 5844 5847 5849 5851 5853 5856 5860 5862 5864 5866 5867 5869 5871 5872 5873 5874 5875 5876 5877 5878 5878 5879 5879 5879 5879 5879 5879 5878 5877 5876 5875 5874 5872 5871 5870
5791 5794 5797 5800 5803 5805 5808 5814 5819 5822 5826 5829 5833 5836 5840 5842 5844 5846 5848 5852 5855 5858 5861 5862 5864 5866 5867 5869 5870 5871 5872 5872 5873 5874 5874 5875 5875 5875 5874 5874 5874 5873 5872 5870 5869 5868 5866 5864 5863
5786 5790 5794 5800 5800 5802 5805 5810 5813 5817 5821 5825 5828 5831 5834 5836 5838 5839 5842 5846 5850 5853 5856 5858 5860 5862 5863 5865 5866 5866 5867 5868 5869 5869 5869 5870 5870 5870 5869 5869 5869 5868 5866 5865 5863 5861 5860 5858 5856
5783 5787 5791 5794 5796 5799 5803 5806 5809 5814 5817 5819 5823 5826 5828 5831 5832 5832 5833 5840 5844 5848 5851 5853 5855 5857 5859 5860 5861 5862 5862 5863 5864 5864 5865 5864 5864 5864 5863 5863 5863 5861 5860 5858 5856 5854 5853 5851 5849
5780 5784 5787 5791 5794 5796 5800 5804 5807 5810 5812 5815 5818 5821 5820 5823 5823 5822 5829 5834 5837 5842 5845 5848 5850 5852 5854 5856 5856 5856 5856 5857 5859 5859 5859 5858 5857 5857 5856 5856 5856 5855 5854 5851 5849 5847 5846 5844 5841
5777 5782 5784 5787 5790 5794 5798 5800 5803 5805 5807 5810 5813 5815 5815 5816 5816 5817 5824 5830 5834 5837 5840 5843 5845 5847 5849 5850 5851 5851 5851 5852 5852 5852 5852 5851 5850 5850 5849 5848 5848 5848 5846 5843 5840 5839 5839 5838 5836
5776 5779 5782 5784 5788 5792 5795 5798 5799 5800 5802 5805 5808 5811 5813 5812 5813 5816 5820 5824 5827 5831 5835 5838 5840 5842 5843 5845 5846 5845 5845 5845 5845 5845 5844 5844 5844 5843 5842 5841 5839 5838 5837 5835 5834 5833 5832 5831 5830
5773 5777 5780 5782 5786 5788 5791 5795 5795 5795 5796 5799 5803 5805 5808 5810 5812 5814 5817 5819 5821 5826 5830 5832 5834 5835 5837 5838 5839 5839 5838 5837 5837 5837 5837 5836 5836 5835 5834 5832 5830 5830 5829 5828 5827 5826 5825 5824 5822
5771 5775 5779 5782 5785 5787 5790 5791 5789 5789 5790 5794 5799 5802 5805 5807 5809 5811 5814 5816 5819 5822 5824 5826 5827 5829 5830 5831 5832 5832 5832 5831 5830 5830 5830 5829 5828 5826 5825 5825 5823 5822 5822 5820 5819 5818 5817 5815 5814
5769 5773 5778 5782 5785 5788 5789 5787 5785 5787 5788 5792 5795 5799 5801 5803 5805 5807 5809 5812 5814 5816 5818 5820 5822 5823 5824 5824 5825 5825 5825 5825 5823 5822 5821 5820 5820 5819 5818 5817 5816 5814 5814 5812 5811 5810 5808 5807 5805
5768 5771 5775 5777 5778 5781 5782 5781 5782 5784 5787 5789 5792 5795 5797 5798 5800 5802 5805 5807 5809 5811 5812 5814 5815 5816 5817 5818 5818 5818 5818 5818 5816 5815 5813 5812 5811 5810 5810 5809 5808 5806 5805 5804 5802 5800 5798 5796 5795
5767 5770 5773 5775 5775 5776 5777 5777 5778 5779 5782 5785 5787 5790 5792 5794 5795 5797 5799 5801 5802 5804 5805 5807 5808 5808 5809 5810 5810 5810 5810 5810 5809 5807 5806 5804 5803 5802 5801 5800 5798 5797 5795 5793 5792 5789 5787 5785 5783
5766 5768 5770 5773 5774 5774 5772 5773 5770 5772 5774 5777 5781 5784 5786 5788 5790 5792 5793 5795 5796 5797 5799 5800 5801 5801 5802 5802 5803 5802 5802 5802 5801 5800 5798 5796 5795 5794 5792 5790 5788 5786 5784 5782 5780 5778 5775 5773 5771
5763 5766 5769 5770 5770 5770 5768 5769 5762 5762 5766 5771 5775 5778 5780 5783 5784 5785 5787 5788 5790 5791 5792 5793 5793 5794 5794 5795 5795 5795 5794 5793 5792 5791 5789 5788 5786 5784 5781 5779 5777 5775 5772 5770 5768 5766 5763 5761 5759